Location: Ashtead
(51.3000°N, 0.3000°W)
Time: 05:28:20
(UTC+00:00)

Cosmos 2322 Rocket - Pass Details

Date: 26 September 2023
Orbit: 831 x 852 km, 71.0° (Epoch: 29 November)

Event Time Altitude Azimuth Distance (km) Brightness Sun altitude
Rises 01:55:58 0° 331° (NNW) 3,395 5.6 -33.5°
Reaches altitude 10° 01:58:41 10° 342° (NNW) 2,461 4.9 -33.2°
Maximum altitude 02:03:43 32° 45° (NE) 1,410 3.8 -32.7°
Drops below altitude 10° 02:08:44 10° 108° (ESE) 2,462 4.8 -32.2°
Sets 02:11:27 0° 118° (ESE) 3,398 5.5 -31.9°
